Location: Kershaw
(34.5481°N, 80.5823°W)
Time: 11:14:11
(UTC+00:00)

Tiros 1 despin weight - Pass Details

Date: 12 October 2022
Orbit: 590 x 637 km, 48.2° (Epoch: 25 November)

Event Time Altitude Azimuth Distance (km) Brightness Sun altitude
Rises 20:37:22 0° 305° (NW) 2,835 ? 25.2°
Reaches altitude 10° 20:40:41 10° 332° (NNW) 1,942 ? 24.6°
Maximum altitude 20:43:03 14° 4° (N) 1,699 ? 24.2°
Drops below altitude 10° 20:45:26 10° 36° (NE) 1,958 ? 23.7°
Sets 20:48:49 0° 62° (ENE) 2,874 ? 23.1°
